User: anonymous   Login
Location: Unspecified
(0.0000°N, 0.0000°E)
Time: 05:01:22
(UTC+00:00)
Language:

OPTUS D3 - Orbit

View from above orbital plane
View from above orbital plane
View from above satellite
View from above satellite

Ground track
Ground track

The orbit data is extracted from the following two-line orbital elements,

1 35756U 09044B   18319.58192435 -.00000144 +00000-0 +00000-0 0  9992
2 35756 000.0478 052.0613 0002766 189.9203 178.1723 01.00272151033775
Epoch (UTC): 15 November 2018 13:57:58
Eccentricity: 0.0002766
inclination: 0.0478°
perigee height: 35774 km
apogee height: 35798 km
right ascension of ascending node: 52.0613°
argument of perigee: 189.9203°
revolutions per day: 1.00272151
mean anomaly at epoch: 178.1723°
orbit number at epoch: 3377

The dashed part of the orbit path shows where the satellite is in the earth's shadow,  

DLR